Location: Peterborough
(44.3091°N, 78.3197°W)
Time: 10:47:24
(UTC-04:00)

A-11 Canister half - Pass Details

Date: 19 September 2024
Orbit: 1515 x 1684 km, 47.2° (Epoch: 02 October)

Event Time Altitude Azimuth Distance (km) Brightness Sun altitude
Rises 22:57:31 0° 287° (WNW) 4,691 12.3 -36.4°
Reaches altitude 10° 23:00:35 10° 288° (WNW) 3,695 11.6 -36.8°
Enters shadow 23:09:14 80° 299° (WNW) 1,539 8.8 -37.8°
